星链-5826 (STARLINK-5826 )

导读

STARLINK-5826是美国太空探索技术公司星链互联网卫星星座中的一员,于2023年3月3日发射入轨。星链星座旨在为全球提供低延迟、高速率的宽带互联网服务,该卫星承担着全球偏远地区网络覆盖、补充通信基础设施的任务,助力星链完成全球网络服务布局。

Basic Information
目录编号:
55782
目录名称:
STARLINK-5826
国际标识:
2023-028AT
轨道中心:
EARTH
卫星名称:
星链-5826
卫星全名:
星链-5826 (STARLINK-5826 )
卫星状态:
在轨 (已飞行1281 天)
发射日期:
2023-03-03 UTC
国别 :
美国 (US)
星等 :
--
Orbit Information
数据来源 国际轨道数据 AOE轨道数据
星历时间 2026-09-04T10:02:51+0800
18小时前
查看轨道信息
2026-09-03T23:00:00+0800
1天前
查看轨道信息
半长轴 6950.228km 6950.201km
偏心率 0.0002821 0.0002846
轨道倾角 69.999° 70.001°
近地点辐角 268.297° 266.112°
升交点赤经 114.842° 116.002°
平近点角 91.787° 131.792°
近地点 570.13km 570.085km
远地点 574.052km 574.043km
周期 96.108分钟 96.107分钟
每日圈数 14.983187 14.983276
Detailed Information
固有亮度:
5
最大亮度:
2.5
卫星平台:
Starlink v1.5
覆盖范围:
全球
运营商:
太空探索技术公司
运营商所在国:
美国
制造商(研发单位):
太空探索技术公司
制造商所在国:
美国
使用方式:
暂无
Satellite Introduction
星链(Starlink)计划是由太空探索技术公司(SpaceX)提出的一个巨型低轨卫星互联网星座项目,计划在2019年至2024年间在太空搭建由约1.2万颗卫星组成的“星链”网络,其中1584颗将部署在地球上空550千米处的近地轨道,并从2020年开始工作。该卫星仍在工作。
2D Orbit Map
3D Orbit Map
Orbit Altitude Analysis Chart
Orbit Inclination Analysis Chart
Orbit Comprehensive Analysis Chart
View Comprehensive Chart
Conjunction Data List
Event ID Objects TCA Miss Dist (km) Collision Risk Probability Collision Risk Index (CRI) Action
CDM_260831-144705-578206-487224
2026-08-31T
14:47:49+0000
2.644 km
极远距离
1.612108E-6 低风险 0.39